This is the latest recevied weather packets stored in our database for station/object N0NAI-13. If no packets are shown the sender has not sent any weather packets the latest 10 day(s).
| Time | Temp. | Humidity | Pressure | Rain* | Wind** | Luminosity | Snow |
|---|---|---|---|---|---|---|---|
| 1777936523 | 16.11° C | 39% | 1004 hPa | 0 mm | - | - | - |
| 1777935926 | 16.67° C | 37% | 1004 hPa | 0 mm | - | - | - |
| 1777935323 | 17.78° C | 34% | 1003.6 hPa | 0 mm | - | - | - |
| 1777934720 | 18.33° C | 34% | 1003.6 hPa | 0 mm | - | - | - |
| 1777934117 | 18.33° C | 34% | 1003.6 hPa | 0 mm | - | - | - |
| 1777933520 | 18.33° C | 35% | 1003.3 hPa | 0 mm | - | - | - |
| 1777932923 | 17.78° C | 35% | 1003.2 hPa | 0 mm | - | - | - |
| 1777932326 | 18.33° C | 34% | 1003.2 hPa | 0 mm | - | - | - |
| 1777931729 | 18.89° C | 33% | 1003 hPa | 0 mm | - | - | - |
| 1777931132 | 17.78° C | 31% | 1002.8 hPa | 0 mm | - | - | - |
| 1777930517 | 17.78° C | 29% | 1002.8 hPa | 0 mm | - | - | - |
| 1777929920 | 17.78° C | 30% | 1002.8 hPa | 0 mm | - | - | - |
| 1777929323 | 18.33° C | 30% | 1002.7 hPa | 0 mm | - | - | - |
| 1777928726 | 18.33° C | 31% | 1002.7 hPa | 0 mm | - | - | - |
| 1777928129 | 18.89° C | 29% | 1002.8 hPa | 0 mm | - | - | - |
| 1777927532 | 19.44° C | 29% | 1002.6 hPa | 0 mm | - | - | - |
| 1777926916 | 19.44° C | 30% | 1002.5 hPa | 0 mm | - | - | - |
| 1777926319 | 19.44° C | 33% | 1002.5 hPa | 0 mm | - | - | - |
| 1777925723 | 19.44° C | 32% | 1002.6 hPa | 0 mm | - | - | - |
| 1777925126 | 18.89° C | 32% | 1002.4 hPa | 0 mm | - | - | - |
| 1777924529 | 19.44° C | 33% | 1002.3 hPa | 0 mm | - | - | - |
| 1777923927 | 19.44° C | 32% | 1002.3 hPa | 0 mm | - | - | - |
| 1777923316 | 20.56° C | 31% | 1002.2 hPa | 0 mm | - | - | - |
| 1777922719 | 22.78° C | 33% | 1002 hPa | 0 mm | - | - | - |
| 1777922117 | 21.67° C | 31% | 1001.8 hPa | 0 mm | - | - | - |
* Rain latest hour (hover to see other rain measurements)
** Current wind speed in m/s (hover to see current wind gust speed)